Location: Unspecified
(48.8656°N, 0.0000°E)
Time: 23:25:37
(UTC+00:00)

Vanguard 1 Rocket - Pass Details

Date: 20 June 2019
Orbit: 650 x 4226 km, 34.3° (Epoch: 12 October)

Event Time Altitude Azimuth Distance (km) Brightness Sun altitude
Rises 22:27:24 0° 262° (W) 4,560 11.2 -14.7°
Reaches altitude 10° 22:33:00 10° 236° (SW) 2,884 9.8 -15.0°
Maximum altitude 22:35:28 12° 213° (SSW) 2,453 9.3 -15.2°
Enters shadow 22:36:21 12° 204° (SSW) 2,391 9.1 -15.2°
Drops below altitude 10° 22:37:36 10° 190° (S) 2,405 - -15.3°
Sets 22:41:16 0° 158° (SSE) 3,061 - -15.5°
